カタログに戻る

COSMOS 2499 DEB

運用中PO
NORAD 55718·DEBRIS·🇷🇺 Russia

打ち上げ May 23, 2014 から Plesetsk Cosmodrome

Loading…

次のパス (今後24時間)

TLE

経年Source: Space-Track

元期: Sep 4, 2026, 12:46 UTC

1 55718U 14028AE  26247.53241241  .00000974  00000-0  35400-2 0  9998
2 55718  82.3860 188.3900 0198867 173.7369 186.6294 12.86672280105564

AllMySatでCOSMOS 2499 DEBをリアルタイム追跡

Download on the App Store